MOLNIYA 2-14

Last updated on Jan. 25, 2021, 10:42 a.m. UTC

1 08195U 75081A   21023.97608643 -.00000238  00000-0  94333-2 0  9993
2 08195  63.2531 248.2392 7143652 293.9092   9.5651  2.02056140332618
UTC
Height (km)
Latitude
Longitude
Inclination
Orbital Period
UTC large
Height (km)
Speed (km/s)
/
Latitude / Longitude
Inclination (degrees)
Orbital Period (minutes)
Azimuth
Elevation
Range (km)
Doppler Factor
iOS Compass Heading
iOS Angle

Next 30 passes for location: Hong Kong

Rise time Rise Azimuth (degrees) Set time Set Azimuth (degrees) Duration Max altitude (degrees)

No matching passes for this satellites